Location: Bon Acre
(42.6442°N, 73.5758°W)
Time: 22:51:43
(UTC+00:00)

Okean 1 - Pass Details

Date: 14 December 2025
Orbit: 465 x 484 km, 82.5° (Epoch: 19 January)

Event Time Altitude Azimuth Distance (km) Brightness Sun altitude
Rises 23:21:57 0° 203° (SSW) 2,523 7.2 -21.3°
Reaches altitude 10° 23:24:08 10° 211° (SSW) 1,645 6.3 -21.7°
Maximum altitude 23:27:32 40° 282° (WNW) 715 4.3 -22.3°
Enters shadow 23:29:35 20° 342° (NNW) 1,146 5.0 -22.7°
